Location: LDNL
(36.4545°S, 141.6685°E)
Time: 05:41:11
(UTC+10:00)

Vanguard 1 - Visible Passes

Search period start: 10 August 2022 00:00
Search period end: 20 August 2022 00:00
Orbit: 648 x 3833 km, 34.3° (Epoch: 08 August)

Date Brightness Start Highest point End Pass type
(mag) Time Alt. Az. Time Alt. Az. Time Alt. Az.
10 Aug 9.2 19:40:44 10° W 19:45:40 69° N 19:46:20 58° NE visible
11 Aug 9.4 20:01:32 10° W 20:06:01 61° NNW 20:06:01 61° NNW visible
12 Aug 10.3 20:22:20 10° W 20:25:42 40° WNW 20:25:42 40° WNW visible
13 Aug 9.7 18:21:27 10° W 18:27:48 71° N 18:32:20 10° E visible
13 Aug 11.2 20:43:10 10° W 20:45:25 25° WNW 20:45:25 25° WNW visible
14 Aug 9.6 18:42:24 10° W 18:48:29 70° N 18:52:25 13° ENE visible
14 Aug 11.9 21:04:05 10° W 21:05:07 15° WNW 21:05:07 15° WNW visible
15 Aug 9.7 19:03:20 10° W 19:09:07 63° N 19:12:09 20° ENE visible
16 Aug 9.9 19:24:16 10° W 19:29:43 52° NNW 19:31:54 27° NE visible
17 Aug 10.2 19:45:13 10° W 19:50:16 40° NNW 19:51:40 31° NNE visible
18 Aug 10.6 20:06:17 10° W 20:10:44 29° NNW 20:11:27 27° N visible
19 Aug 11.3 20:27:35 10° WNW 20:31:09 19° NNW 20:31:16 19° NNW visible
